Regional Weather Roundup
Issued by NWS

Home | Current Version | Previous Version | Graphics & Text | Print | Product List | Glossary On
Versions: 1 2 3 4 5 6 7 8 9 10 11 12 13 14 15 16 17 18 19 20 21 22 23 24 25 26 27 28 29 30 31 32 33 34 35 36 37 38 39 40 41 42 43 44 45 46 47 48 49 50
000
ASUS43 KLOT 271602
RWRIL

ILLINOIS REGIONAL WEATHER ROUNDUP
NATIONAL WEATHER SERVICE CHICAGO/ROMEOVILLE IL
1100 AM CDT FRI MAR 27 2015

NOTE: "FAIR" INDICATES FEW OR NO CLOUDS BELOW 12,000 FEET WITH NO
SIGNIFICANT WEATHER AND/OR OBSTRUCTIONS TO VISIBILITY.

* THESE STATIONS ARE NOT UNDER NWS QUALITY CONTROL. THEY ALSO MAY NOT
  REPORT WEATHER SUCH AS PRECIPITATION OR FOG.

ILZ001-002-007-009-015-016-024-271700-
NORTHWEST ILLINOIS

CITY           SKY/WX    TMP DP  RH WIND       PRES   REMARKS
MOLINE         SUNNY     30   6  36 N12       30.23S WCI  20
STERLING*      SUNNY     30   9  40 N12G22    30.22S WCI  21
$$

ILZ003-004-008-010-011-017-018-271700-
NORTH CENTRAL ILLINOIS

CITY           SKY/WX    TMP DP  RH WIND       PRES   REMARKS
ROCKFORD       MOSUNNY   28   5  37 N16G23    30.22S WCI  16
$$

ILZ005-006-012>014-019>023-271700-
NORTHEAST ILLINOIS

CITY           SKY/WX    TMP DP  RH WIND       PRES   REMARKS
CHICAGO-OHARE  MOSUNNY   26  10  50 N14G25    30.17R WCI  14
CHICAGO-MIDWAY PTSUNNY   28  13  53 N14       30.17R WCI  17
AURORA         SUNNY     29   6  38 N16       30.18R WCI  17
WAUKEGAN       SUNNY     24   7  48 N13G21    30.17R WCI  12
DUPAGE AIRPORT SUNNY     28   4  35 N15G26    30.16R WCI  16
WHEELING       MOSUNNY   26   9  48 N12       30.19R WCI  16
NORTHERLY ISL    N/A     26  15  63 N21         N/A  WCI  12
$$

LMZ740>746-271700-
SOUTHERN LAKE MICHIGAN

STATION/POSITION SKY/WX   TEMP    WIND        PRES    VSBY  WAVE
                          AIR SEA DIR/SP/G                  HT/PER
                          (F)     (DEG/KT/KT) (MB)    (MI)  (FT/S)
HARRISON CRIB              23     340/ 23/ 26   N/A
BURNHAM HARBOR             25     340/ 16/ 20   N/A
CALUMET HARBOR             26     330/ 18/ 26 1019.7R
BURNS HARBOR               27     360/ 18/ 25 1020.7R
MICHIGAN CITY              26     320/ 22/ 25   N/A
$$

ILZ025>027-034>036-040-047-049-050-058-095>099-271700-
WEST-CENTRAL ILLINOIS

CITY           SKY/WX    TMP DP  RH WIND       PRES   REMARKS
QUINCY         LGT SNOW  33  24  69 N7        30.21R WCI  27
$$

ILZ028>032-037-038-041>044-048-051>054-059>061-271700-
CENTRAL ILLINOIS

CITY           SKY/WX    TMP DP  RH WIND       PRES   REMARKS
DECATUR        SUNNY     36  13  38 N18       30.16R WCI  26
PEORIA         SUNNY     32  12  43 N13G21    30.20R WCI  22
SPRINGFIELD    MOSUNNY   36  17  46 N12G18    30.19R WCI  28
TAYLORVILLE    NOT AVBL
$$

ILZ033-039-045-046-055>057-062-063-271700-
EAST-CENTRAL ILLINOIS

CITY           SKY/WX    TMP DP  RH WIND       PRES   REMARKS
CHAMPAIGN      CLOUDY    34  21  59 N20       30.13R WCI  23
MATTOON        PTSUNNY   34  20  56 NW16      30.12R WCI  24
$$

ILZ079-100>102-271700-
SOUTHWEST ILLINOIS

CITY           SKY/WX    TMP DP  RH WIND       PRES   REMARKS
ALTON          CLOUDY    36  19  51 N7        30.19R WCI  30
BELLEVILLE     CLOUDY    37  27  65 N16       30.16R WCI  28
CAHOKIA*       CLOUDY    37  25  61 N13       30.19R WCI  29
$$

ILZ064>066-069>071-074>076-080>082-084>086-088>090-092>094-271700-
SOUTH-CENTRAL ILLINOIS

CITY           SKY/WX    TMP DP  RH WIND       PRES   REMARKS
CARBONDALE     CLOUDY    34  29  82 N17       30.14R WCI  23
MARION         LGT SNOW  37  32  81 NW20      30.14R WCI  27
MT. VERNON     CLOUDY    36  27  69 NW5       30.14R WCI  32
$$

ILZ067-068-072-073-078-083-087-091-271700-
SOUTHEAST ILLINOIS

CITY           SKY/WX    TMP DP  RH WIND       PRES   REMARKS
LAWRENCEVILLE  CLOUDY    38  26  62 N14G21    30.12R WCI  30
$$

ABBREVIATIONS USED IN REMARKS
   TC - TEMPERATURE IN CELSIUS
  WCI - WIND CHILL INDEX
   HX - HEAT INDEX
  VSB - VISIBILITY
$$



USA.gov is the U.S. government's official web portal to all federal, state and local government web resources and services.